Weather History for West Palm Beach, FL

Change the Weather History Date:

Sunday, December 8, 2013

  Actual Average Record
Temperature  
Mean Temperature 79 °F 69 °F  
Max Temperature 83 °F 77 °F 87 °F (1948)
Min Temperature 75 °F 62 °F 37 °F (2010)
Degree Days  
Heating Degree Days 0 1  
Month to date heating degree days 0 8  
Since 1 July heating degree days 4 20  
Cooling Degree Days 14 6  
Month to date cooling degree days 66 48  
Year to date cooling degree days 4267 3914  
Growing Degree Days 27 (Base 50)    
Moisture  
Dew Point 67 °F    
Average Humidity 72    
Maximum Humidity 82    
Minimum Humidity 62    
Precipitation  
Precipitation 0.03 in 0.10 in 1.38 in (1979)
Month to date precipitation 4.11 0.87  
Year to date precipitation 64.75 59.82  
Snow  
Snow 0.00 in - - ()
Month to date snowfall 0.0  
Since 1 July snowfall 0.0  
Snow Depth 0.00 in    
Sea Level Pressure  
Sea Level Pressure 30.16 in    
Wind  
Wind Speed 11 mph (ESE)    
Max Wind Speed 22 mph    
Max Gust Speed 26 mph    
Visibility 10 miles    
Events Rain    
T = Trace of Precipitation, MM = Missing Value Source: NWS Daily Summary

Daily Weather History Graph

Daily Weather History Graph

Search for Another Location

Airport:

Trip Planner

Search our weather history database for the weather conditions in past years. The results will help you decide how hot, cold, wet, or windy it might be!

Date:

Astronomy

Dec. 08, 2013 Rise Set
Actual Time 6:56 AM EST 5:27 PM EST
Civil Twilight 6:31 AM EST 5:53 PM EST
Nautical Twilight 6:02 AM EST 6:22 PM EST
Astronomical Twilight 5:34 AM EST 6:50 PM EST
Moon 11:41 AM EST (12/8) 11:47 PM EST (12/8)
Length of Visible Light 11h 21m
Length of Day
10h 30m
Waxing Crescent, 40% of the Moon is Illuminated
Dec 8
Waxing Crescent
Dec 9
First Quarter
Dec 17
Full
Dec 25
Last Quarter
Jan 1
New

Hourly Weather History & Observations

Time (EST) Temp. Heat Index Dew Point Humidity Pressure Visibility Wind Dir Wind Speed Gust Speed Precip Events Conditions
12:53 AM 77.0 °F - 68.0 °F 74% 30.17 in 10.0 mi East 12.7 mph - N/A   Mostly Cloudy
1:53 AM 75.9 °F - 69.1 °F 79% 30.16 in 10.0 mi SE 16.1 mph - N/A   Mostly Cloudy
2:53 AM 75.9 °F - 68.0 °F 76% 30.15 in 10.0 mi SE 9.2 mph - N/A   Overcast
3:53 AM 77.0 °F - 66.9 °F 71% 30.14 in 10.0 mi ESE 9.2 mph - N/A   Overcast
4:53 AM 78.1 °F - 66.0 °F 66% 30.15 in 10.0 mi ESE 11.5 mph - N/A   Mostly Cloudy
5:53 AM 77.0 °F - 66.0 °F 69% 30.16 in 10.0 mi ESE 9.2 mph - N/A   Mostly Cloudy
6:53 AM 75.9 °F - 64.9 °F 69% 30.18 in 10.0 mi ESE 9.2 mph - N/A   Scattered Clouds
7:53 AM 77.0 °F - 66.0 °F 69% 30.20 in 10.0 mi ESE 9.2 mph - N/A   Scattered Clouds
8:53 AM 80.1 °F 82.3 °F 66.9 °F 64% 30.21 in 10.0 mi ESE 12.7 mph - N/A   Scattered Clouds
9:53 AM 82.0 °F 84.9 °F 68.0 °F 62% 30.21 in 10.0 mi ESE 12.7 mph - N/A   Scattered Clouds
10:26 AM 78.8 °F - 69.8 °F 74% 30.21 in 7.0 mi East 12.7 mph - 0.00 in Rain Light Rain
10:53 AM 78.1 °F - 72.0 °F 81% 30.21 in 7.0 mi East 8.1 mph - 0.03 in   Mostly Cloudy
11:53 AM 81.0 °F 84.4 °F 70.0 °F 69% 30.18 in 10.0 mi ESE 12.7 mph - 0.00 in   Mostly Cloudy
12:53 PM 82.0 °F 85.5 °F 69.1 °F 65% 30.16 in 10.0 mi East 11.5 mph - N/A   Mostly Cloudy
1:53 PM 82.0 °F 85.5 °F 69.1 °F 65% 30.14 in 10.0 mi SE 6.9 mph 16.1 mph N/A   Mostly Cloudy
2:09 PM 82.4 °F 85.4 °F 68.0 °F 62% 30.14 in 10.0 mi SE 10.4 mph 17.3 mph N/A   Mostly Cloudy
2:53 PM 81.0 °F 83.0 °F 66.0 °F 60% 30.13 in 10.0 mi SE 11.5 mph - N/A   Mostly Cloudy
3:53 PM 80.1 °F 82.1 °F 66.0 °F 62% 30.13 in 10.0 mi SE 15.0 mph - N/A   Mostly Cloudy
4:53 PM 79.0 °F - 66.0 °F 64% 30.13 in 10.0 mi SE 12.7 mph - N/A   Scattered Clouds
5:53 PM 78.1 °F - 66.9 °F 68% 30.13 in 10.0 mi SE 10.4 mph - N/A   Scattered Clouds
6:53 PM 77.0 °F - 64.9 °F 66% 30.15 in 10.0 mi SE 8.1 mph - N/A   Scattered Clouds
7:53 PM 78.1 °F - 64.9 °F 64% 30.16 in 10.0 mi SE 9.2 mph - N/A   Mostly Cloudy
8:53 PM 78.1 °F - 66.9 °F 68% 30.17 in 10.0 mi SE 9.2 mph - N/A   Mostly Cloudy
9:53 PM 77.0 °F - 68.0 °F 74% 30.17 in 10.0 mi SE 9.2 mph - N/A   Scattered Clouds
10:53 PM 78.1 °F - 68.0 °F 71% 30.17 in 10.0 mi SE 10.4 mph - N/A   Mostly Cloudy
11:53 PM 78.1 °F - 68.0 °F 71% 30.16 in 10.0 mi SE 11.5 mph - N/A   Mostly Cloudy